| time (UTC) | temp F | wind direction | speed knots | gust knots | rain 1hr in | rain 24hr in | rain mn in | humidity % | barometer mb |
| 20260508065146 | 55 | 323 | 0.9 | 2.6 | 0.00 | 0.00 | 0.00 | 91 | 1011.6 |
| 20260508064646 | 55 | 323 | 0.9 | 2.6 | 0.00 | 0.00 | 0.00 | 91 | 1011.6 |
| 20260508064140 | 55 | 323 | 0.9 | 2.6 | 0.00 | 0.00 | 0.00 | 91 | 1011.6 |
| 20260508063640 | 55 | 323 | 0.9 | 1.7 | 0.00 | 0.00 | 0.00 | 91 | 1011.6 |
| 20260508063139 | 55 | 323 | 0.9 | 3.5 | 0.00 | 0.00 | 0.00 | 91 | 1011.6 |
| 20260508062635 | 55 | 323 | 0.9 | 3.5 | 0.00 | 0.00 | 0.00 | 91 | 1011.6 |
| 20260508062142 | 55 | 331 | 0.9 | 3.5 | 0.00 | 0.00 | 0.00 | 90 | 1011.6 |
| 20260508061636 | 55 | 331 | 0.9 | 2.6 | 0.00 | 0.00 | 0.00 | 90 | 1011.6 |
| 20260508061130 | 55 | 331 | 0.0 | 2.6 | 0.00 | 0.00 | 0.00 | 90 | 1011.6 |
| 20260508060630 | 55 | 331 | 0.0 | 1.7 | 0.00 | 0.00 | 0.00 | 90 | 1011.6 |
| 20260508060127 | 55 | 331 | 0.0 | 1.7 | 0.00 | 0.00 | 0.00 | 90 | 1011.6 |
| 20260508055628 | 55 | 331 | 0.0 | 1.7 | 0.00 | 0.00 | 0.00 | 90 | 1011.6 |
| 20260508055128 | 56 | 331 | 0.0 | 1.7 | 0.00 | 0.00 | 0.00 | 89 | 1011.6 |
| 20260508054624 | 56 | 331 | 0.0 | 1.7 | 0.00 | 0.00 | 0.00 | 89 | 1011.6 |
| 20260508054124 | 56 | 331 | 0.0 | 0.9 | 0.00 | 0.00 | 0.00 | 90 | 1011.6 |
| 20260508053621 | 56 | 331 | 0.0 | 1.7 | 0.00 | 0.00 | 0.00 | 90 | 1011.6 |
| 20260508052117 | 56 | 331 | 0.0 | 2.6 | 0.00 | 0.00 | 0.00 | 89 | 1011.6 |
| 20260508051617 | 56 | 331 | 0.9 | 2.6 | 0.00 | 0.00 | 0.00 | 89 | 1011.6 |
| 20260508051114 | 56 | 331 | 0.9 | 2.6 | 0.00 | 0.00 | 0.00 | 89 | 1011.7 |
| 20260508050613 | 56 | 331 | 0.9 | 2.6 | 0.00 | 0.00 | 0.00 | 89 | 1011.7 |
| 20260508050112 | 56 | 331 | 0.9 | 2.6 | 0.00 | 0.00 | 0.00 | 89 | 1011.7 |
| 20260508045609 | 56 | 331 | 0.9 | 2.6 | 0.00 | 0.00 | 0.00 | 89 | 1011.6 |
| 20260508045109 | 56 | 331 | 0.0 | 1.7 | 0.00 | 0.00 | 0.00 | 89 | 1011.6 |
| 20260508044607 | 56 | 331 | 0.9 | 1.7 | 0.00 | 0.00 | 0.00 | 89 | 1011.6 |
| 20260508044104 | 56 | 331 | 0.9 | 1.7 | 0.00 | 0.00 | 0.00 | 89 | 1011.6 |
| 20260508043559 | 56 | 331 | 0.9 | 2.6 | 0.00 | 0.00 | 0.00 | 89 | 1011.6 |
| 20260508043105 | 56 | 331 | 0.9 | 2.6 | 0.00 | 0.00 | 0.00 | 89 | 1011.6 |
| 20260508042600 | 56 | 331 | 0.9 | 1.7 | 0.00 | 0.00 | 0.00 | 89 | 1011.5 |
| 20260508042055 | 56 | 331 | 0.9 | 2.6 | 0.00 | 0.00 | 0.00 | 89 | 1011.5 |
| 20260508041548 | 56 | 331 | 0.9 | 2.6 | 0.00 | 0.00 | 0.00 | 89 | 1011.5 |
| 20260508041044 | 56 | 331 | 0.9 | 2.6 | 0.00 | 0.00 | 0.00 | 89 | 1011.2 |
| 20260508040044 | 56 | 334 | 1.7 | 5.2 | 0.00 | 0.00 | 0.00 | 89 | 1011.2 |
| 20260508035541 | 56 | 322 | 1.7 | 5.2 | 0.00 | 0.00 | 0.00 | 89 | 1011.3 |
| 20260508035048 | 56 | 9 | 1.7 | 5.2 | 0.00 | 0.00 | 0.00 | 89 | 1011.3 |
| 20260508034537 | 56 | 279 | 1.7 | 5.2 | 0.00 | 0.00 | 0.00 | 89 | 1011.3 |
| 20260508034036 | 56 | 296 | 0.9 | 5.2 | 0.00 | 0.00 | 0.00 | 89 | 1011.1 |
| 20260508033531 | 56 | 294 | 0.9 | 6.1 | 0.00 | 0.00 | 0.00 | 89 | 1011.1 |
| 20260508032526 | 56 | 277 | 1.7 | 5.2 | 0.00 | 0.00 | 0.00 | 88 | 1011.0 |
| 20260508032025 | 56 | 321 | 2.6 | 6.1 | 0.00 | 0.00 | 0.00 | 88 | 1011.0 |
| 20260508031523 | 56 | 351 | 2.6 | 6.1 | 0.00 | 0.00 | 0.00 | 88 | 1011.0 |
| 20260508031023 | 56 | 343 | 2.6 | 7.8 | 0.00 | 0.00 | 0.00 | 88 | 1010.8 |
| 20260508030522 | 56 | 298 | 2.6 | 7.8 | 0.00 | 0.00 | 0.00 | 88 | 1010.8 |
| 20260508030020 | 56 | 281 | 3.5 | 7.0 | 0.00 | 0.00 | 0.00 | 87 | 1010.8 |
| 20260508025524 | 56 | 298 | 3.5 | 7.8 | 0.00 | 0.00 | 0.00 | 87 | 1010.7 |
| 20260508025026 | 57 | 323 | 4.3 | 7.8 | 0.00 | 0.00 | 0.00 | 87 | 1010.7 |
| 20260508024519 | 57 | 331 | 3.5 | 7.0 | 0.00 | 0.00 | 0.00 | 86 | 1010.7 |
| 20260508024014 | 57 | 344 | 3.5 | 7.0 | 0.00 | 0.00 | 0.00 | 86 | 1010.8 |
| 20260508023514 | 57 | 310 | 4.3 | 10.4 | 0.00 | 0.00 | 0.00 | 86 | 1010.8 |
| 20260508023014 | 57 | 324 | 4.3 | 10.4 | 0.00 | 0.00 | 0.00 | 85 | 1010.8 |
| 20260508022012 | 58 | 330 | 3.5 | 7.8 | 0.00 | 0.00 | 0.00 | 83 | 1010.7 |
| 20260508021008 | 59 | 348 | 3.5 | 7.8 | 0.00 | 0.00 | 0.00 | 81 | 1010.7 |
| 20260508020509 | 59 | 0 | 3.5 | 8.7 | 0.00 | 0.00 | 0.00 | 81 | 1010.7 |
| 20260508015502 | 60 | 326 | 3.5 | 8.7 | 0.00 | 0.00 | 0.00 | 80 | 1010.6 |
| 20260508015002 | 60 | 337 | 3.5 | 7.8 | 0.00 | 0.00 | 0.00 | 80 | 1010.6 |
| 20260508014500 | 61 | 345 | 3.5 | 7.8 | 0.00 | 0.00 | 0.00 | 79 | 1010.6 |
| 20260508014001 | 61 | 321 | 4.3 | 7.8 | 0.00 | 0.00 | 0.00 | 78 | 1010.6 |
| 20260508013455 | 61 | 0 | 4.3 | 8.7 | 0.00 | 0.00 | 0.00 | 78 | 1010.6 |
| 20260508012952 | 62 | 321 | 4.3 | 8.7 | 0.00 | 0.00 | 0.00 | 78 | 1010.6 |
| 20260508012452 | 62 | 309 | 5.2 | 13.9 | 0.00 | 0.00 | 0.00 | 77 | 1010.5 |
| 20260508011951 | 62 | 323 | 4.3 | 13.9 | 0.00 | 0.00 | 0.00 | 76 | 1010.5 |
| 20260508011449 | 63 | 297 | 4.3 | 9.6 | 0.00 | 0.00 | 0.00 | 75 | 1010.5 |
| 20260508010947 | 63 | 298 | 4.3 | 12.2 | 0.00 | 0.00 | 0.00 | 75 | 1010.2 |
| 20260508010451 | 63 | 311 | 4.3 | 12.2 | 0.00 | 0.00 | 0.00 | 75 | 1010.2 |
| 20260508005947 | 64 | 334 | 4.3 | 11.3 | 0.00 | 0.00 | 0.00 | 74 | 1010.2 |
| 20260508005446 | 64 | 336 | 4.3 | 8.7 | 0.00 | 0.00 | 0.00 | 74 | 1010.2 |
| 20260508004942 | 64 | 17 | 5.2 | 10.4 | 0.00 | 0.00 | 0.00 | 74 | 1010.2 |
| 20260508004444 | 64 | 0 | 5.2 | 10.4 | 0.00 | 0.00 | 0.00 | 73 | 1010.2 |
| 20260508003941 | 65 | 355 | 4.3 | 9.6 | 0.00 | 0.00 | 0.00 | 73 | 1010.2 |
| 20260508001937 | 65 | 311 | 6.1 | 12.2 | 0.00 | 0.00 | 0.00 | 73 | 1010.2 |
| 20260508001433 | 65 | 321 | 6.1 | 12.2 | 0.00 | 0.00 | 0.00 | 72 | 1010.2 |
| 20260508000930 | 65 | 340 | 6.1 | 12.2 | 0.00 | 0.00 | 0.00 | 72 | 1010.1 |
| 20260508000434 | 65 | 355 | 5.2 | 12.2 | 0.00 | 0.00 | 0.00 | 73 | 1010.1 |
| 20260507235935 | 66 | 315 | 5.2 | 13.0 | 0.00 | 0.00 | 0.00 | 72 | 1010.1 |
| 20260507235428 | 66 | 342 | 5.2 | 13.0 | 0.00 | 0.00 | 0.00 | 72 | 1010.1 |
| 20260507234925 | 66 | 277 | 4.3 | 11.3 | 0.00 | 0.00 | 0.00 | 72 | 1010.1 |
| 20260507234426 | 66 | 5 | 4.3 | 11.3 | 0.00 | 0.00 | 0.00 | 71 | 1010.1 |
| 20260507233921 | 66 | 323 | 4.3 | 11.3 | 0.00 | 0.00 | 0.00 | 71 | 1010.1 |
| 20260507233421 | 67 | 321 | 4.3 | 12.2 | 0.00 | 0.00 | 0.00 | 71 | 1010.1 |
| 20260507232918 | 66 | 11 | 4.3 | 12.2 | 0.00 | 0.00 | 0.00 | 73 | 1010.1 |
| 20260507232415 | 66 | 331 | 4.3 | 11.3 | 0.00 | 0.00 | 0.00 | 73 | 1010.2 |
| 20260507231916 | 65 | 325 | 5.2 | 12.2 | 0.00 | 0.00 | 0.00 | 75 | 1010.2 |
| 20260507231411 | 65 | 309 | 4.3 | 12.2 | 0.00 | 0.00 | 0.00 | 74 | 1010.2 |
| 20260507230911 | 66 | 325 | 5.2 | 12.2 | 0.00 | 0.00 | 0.00 | 73 | 1010.2 |
| 20260507230412 | 66 | 333 | 5.2 | 12.2 | 0.00 | 0.00 | 0.00 | 71 | 1010.2 |
| 20260507225408 | 67 | 313 | 4.3 | 9.6 | 0.00 | 0.00 | 0.00 | 72 | 1010.2 |
| 20260507224910 | 67 | 321 | 5.2 | 12.2 | 0.00 | 0.00 | 0.00 | 72 | 1010.2 |
| 20260507224406 | 67 | 338 | 5.2 | 12.2 | 0.00 | 0.00 | 0.00 | 71 | 1010.2 |
| 20260507223906 | 67 | 314 | 5.2 | 10.4 | 0.00 | 0.00 | 0.00 | 72 | 1010.2 |
| 20260507222900 | 67 | 292 | 5.2 | 10.4 | 0.00 | 0.00 | 0.00 | 72 | 1010.2 |
| 20260507222401 | 67 | 318 | 5.2 | 11.3 | 0.00 | 0.00 | 0.00 | 71 | 1010.2 |
| 20260507221356 | 68 | 317 | 5.2 | 11.3 | 0.00 | 0.00 | 0.00 | 72 | 1010.3 |
| 20260507215348 | 67 | 315 | 6.1 | 13.9 | 0.00 | 0.00 | 0.00 | 72 | 1010.7 |
| 20260507214852 | 67 | 314 | 7.0 | 12.2 | 0.00 | 0.00 | 0.00 | 73 | 1010.7 |
| 20260507214352 | 67 | 300 | 6.1 | 12.2 | 0.00 | 0.00 | 0.00 | 73 | 1010.8 |
| 20260507213846 | 67 | 309 | 6.1 | 12.2 | 0.00 | 0.00 | 0.00 | 72 | 1010.8 |
| 20260507213344 | 68 | 300 | 6.1 | 12.2 | 0.00 | 0.00 | 0.00 | 71 | 1010.8 |
| 20260507212343 | 68 | 320 | 6.1 | 13.0 | 0.00 | 0.00 | 0.00 | 72 | 1011.0 |
| 20260507211341 | 69 | 313 | 5.2 | 12.2 | 0.00 | 0.00 | 0.00 | 70 | 1011.0 |
| 20260507210841 | 68 | 337 | 5.2 | 12.2 | 0.00 | 0.00 | 0.00 | 71 | 1011.0 |
| 20260507210335 | 68 | 323 | 6.1 | 12.2 | 0.00 | 0.00 | 0.00 | 71 | 1011.0 |
| 20260507205834 | 68 | 335 | 6.1 | 12.2 | 0.00 | 0.00 | 0.00 | 71 | 1011.1 |
| 20260507205334 | 69 | 286 | 5.2 | 12.2 | 0.00 | 0.00 | 0.00 | 70 | 1011.1 |
| 20260507204831 | 68 | 311 | 5.2 | 11.3 | 0.00 | 0.00 | 0.00 | 72 | 1011.1 |
| 20260507202832 | 67 | 311 | 5.2 | 12.2 | 0.00 | 0.00 | 0.00 | 72 | 1011.2 |
| 20260507202329 | 67 | 308 | 5.2 | 12.2 | 0.00 | 0.00 | 0.00 | 72 | 1011.2 |
| 20260507201325 | 67 | 346 | 5.2 | 10.4 | 0.00 | 0.00 | 0.00 | 73 | 1011.2 |
| 20260507200326 | 67 | 315 | 5.2 | 10.4 | 0.00 | 0.00 | 0.00 | 73 | 1011.2 |
| 20260507194819 | 67 | 311 | 6.1 | 10.4 | 0.00 | 0.00 | 0.00 | 72 | 1011.2 |
| 20260507193817 | 67 | 348 | 5.2 | 10.4 | 0.00 | 0.00 | 0.00 | 71 | 1011.2 |
| 20260507193316 | 68 | 312 | 5.2 | 10.4 | 0.00 | 0.00 | 0.00 | 71 | 1011.2 |
| 20260507192819 | 68 | 300 | 4.3 | 10.4 | 0.00 | 0.00 | 0.00 | 72 | 1011.2 |
| 20260507192317 | 68 | 324 | 4.3 | 10.4 | 0.00 | 0.00 | 0.00 | 72 | 1011.2 |
| 20260507191812 | 68 | 331 | 5.2 | 10.4 | 0.00 | 0.00 | 0.00 | 72 | 1011.2 |
| 20260507191310 | 68 | 355 | 5.2 | 10.4 | 0.00 | 0.00 | 0.00 | 71 | 1011.2 |
| 20260507190808 | 68 | 328 | 4.3 | 9.6 | 0.00 | 0.00 | 0.00 | 71 | 1011.2 |
| 20260507190308 | 68 | 331 | 5.2 | 12.2 | 0.00 | 0.00 | 0.00 | 74 | 1011.2 |
| 20260507185809 | 67 | 11 | 5.2 | 12.2 | 0.00 | 0.00 | 0.00 | 72 | 1011.3 |
| 20260507185305 | 67 | 336 | 5.2 | 11.3 | 0.00 | 0.00 | 0.00 | 72 | 1011.3 |
| 20260507184804 | 68 | 11 | 5.2 | 9.6 | 0.00 | 0.00 | 0.00 | 71 | 1011.3 |
| 20260507184305 | 68 | 318 | 5.2 | 9.6 | 0.00 | 0.00 | 0.00 | 71 | 1011.3 |
| 20260507183801 | 68 | 330 | 5.2 | 8.7 | 0.00 | 0.00 | 0.00 | 72 | 1011.3 |
| 20260507183300 | 69 | 313 | 4.3 | 10.4 | 0.00 | 0.00 | 0.00 | 71 | 1011.3 |
| 20260507182758 | 70 | 326 | 4.3 | 10.4 | 0.00 | 0.00 | 0.00 | 70 | 1011.3 |
| 20260507182307 | 69 | 22 | 4.3 | 8.7 | 0.00 | 0.00 | 0.00 | 70 | 1011.3 |
| 20260507181802 | 70 | 311 | 4.3 | 8.7 | 0.00 | 0.00 | 0.00 | 69 | 1011.3 |
| 20260507181256 | 70 | 317 | 3.5 | 7.8 | 0.00 | 0.00 | 0.00 | 70 | 1011.3 |
| 20260507180754 | 70 | 336 | 2.6 | 7.0 | 0.00 | 0.00 | 0.00 | 70 | 1011.3 |
| 20260507180251 | 70 | 334 | 2.6 | 7.8 | 0.00 | 0.00 | 0.00 | 70 | 1011.3 |
| 20260507175753 | 70 | 338 | 3.5 | 7.8 | 0.00 | 0.00 | 0.00 | 71 | 1011.3 |
| 20260507175250 | 70 | 317 | 3.5 | 7.8 | 0.00 | 0.00 | 0.00 | 71 | 1011.3 |
| 20260507174248 | 70 | 336 | 3.5 | 7.8 | 0.00 | 0.00 | 0.00 | 72 | 1011.4 |
| 20260507173246 | 69 | 327 | 2.6 | 7.0 | 0.00 | 0.00 | 0.00 | 74 | 1011.4 |
| 20260507172750 | 69 | 325 | 2.6 | 7.0 | 0.00 | 0.00 | 0.00 | 73 | 1011.7 |
| 20260507172244 | 68 | 317 | 2.6 | 6.1 | 0.00 | 0.00 | 0.00 | 75 | 1011.7 |
| 20260507171744 | 67 | 329 | 2.6 | 6.1 | 0.00 | 0.00 | 0.00 | 76 | 1011.7 |
| 20260507171241 | 67 | 339 | 2.6 | 6.1 | 0.00 | 0.00 | 0.00 | 76 | 1011.7 |
| 20260507170731 | 66 | 20 | 2.6 | 6.1 | 0.00 | 0.00 | 0.00 | 79 | 1011.7 |
| 20260507170230 | 65 | 11 | 3.5 | 6.1 | 0.00 | 0.00 | 0.00 | 80 | 1011.7 |
| 20260507165724 | 64 | 355 | 3.5 | 7.0 | 0.00 | 0.00 | 0.00 | 81 | 1011.8 |
| 20260507165224 | 64 | 337 | 3.5 | 7.0 | 0.00 | 0.00 | 0.00 | 81 | 1011.8 |
| 20260507164722 | 63 | 12 | 2.6 | 7.0 | 0.00 | 0.00 | 0.00 | 84 | 1011.8 |
| 20260507164222 | 62 | 355 | 3.5 | 7.8 | 0.00 | 0.00 | 0.00 | 85 | 1011.8 |
| 20260507163719 | 61 | 342 | 3.5 | 7.8 | 0.00 | 0.00 | 0.00 | 85 | 1011.8 |
| 20260507163215 | 61 | 321 | 2.6 | 8.7 | 0.00 | 0.00 | 0.00 | 87 | 1011.8 |
| 20260507162714 | 60 | 5 | 2.6 | 7.8 | 0.00 | 0.00 | 0.00 | 88 | 1011.8 |
| 20260507162210 | 60 | 0 | 3.5 | 7.8 | 0.00 | 0.00 | 0.00 | 89 | 1011.8 |
| 20260507161713 | 59 | 355 | 3.5 | 7.0 | 0.00 | 0.00 | 0.00 | 89 | 1011.8 |
| 20260507161208 | 59 | 347 | 3.5 | 7.0 | 0.00 | 0.00 | 0.00 | 91 | 1011.8 |
| 20260507160703 | 59 | 344 | 3.5 | 7.0 | 0.00 | 0.00 | 0.00 | 92 | 1011.8 |
| 20260507160201 | 58 | 322 | 3.5 | 7.0 | 0.00 | 0.00 | 0.00 | 94 | 1011.8 |
| 20260507155700 | 57 | 331 | 3.5 | 8.7 | 0.00 | 0.00 | 0.00 | 95 | 1011.9 |
| 20260507155159 | 57 | 313 | 3.5 | 8.7 | 0.00 | 0.00 | 0.00 | 95 | 1011.8 |
| 20260507154654 | 56 | 331 | 3.5 | 7.8 | 0.00 | 0.00 | 0.00 | 95 | 1011.8 |
| 20260507154156 | 56 | 304 | 2.6 | 7.8 | 0.00 | 0.00 | 0.00 | 96 | 1011.7 |
| 20260507153655 | 56 | 313 | 3.5 | 7.0 | 0.00 | 0.00 | 0.00 | 96 | 1011.7 |
| 20260507153150 | 56 | 333 | 3.5 | 7.0 | 0.00 | 0.00 | 0.00 | 96 | 1011.7 |
| 20260507152652 | 56 | 333 | 2.6 | 7.0 | 0.00 | 0.00 | 0.00 | 96 | 1011.7 |
| 20260507151654 | 55 | 336 | 2.6 | 6.1 | 0.00 | 0.00 | 0.00 | 97 | 1011.7 |
| 20260507151149 | 55 | 325 | 2.6 | 6.1 | 0.00 | 0.00 | 0.00 | 96 | 1011.7 |
| 20260507150649 | 55 | 333 | 1.7 | 6.1 | 0.00 | 0.00 | 0.00 | 96 | 1011.7 |
| 20260507150147 | 55 | 339 | 2.6 | 7.8 | 0.00 | 0.00 | 0.00 | 96 | 1011.7 |
| 20260507145645 | 54 | 324 | 2.6 | 7.8 | 0.00 | 0.00 | 0.00 | 96 | 1011.7 |
| 20260507145146 | 54 | 313 | 2.6 | 7.0 | 0.00 | 0.00 | 0.00 | 96 | 1011.7 |
| 20260507144645 | 54 | 326 | 3.5 | 7.0 | 0.00 | 0.00 | 0.00 | 96 | 1011.7 |
| 20260507144146 | 54 | 317 | 2.6 | 7.0 | 0.00 | 0.00 | 0.00 | 96 | 1011.8 |
| 20260507143644 | 54 | 355 | 2.6 | 7.0 | 0.00 | 0.00 | 0.00 | 96 | 1011.8 |
| 20260507143138 | 53 | 335 | 3.5 | 7.0 | 0.00 | 0.00 | 0.00 | 96 | 1011.8 |
| 20260507142636 | 53 | 317 | 2.6 | 7.0 | 0.00 | 0.00 | 0.00 | 96 | 1011.6 |
| 20260507142143 | 53 | 326 | 1.7 | 5.2 | 0.00 | 0.00 | 0.00 | 96 | 1011.6 |
| 20260507141635 | 53 | 331 | 2.6 | 7.0 | 0.00 | 0.00 | 0.00 | 96 | 1011.6 |
| 20260507141135 | 53 | 331 | 2.6 | 7.0 | 0.00 | 0.00 | 0.00 | 96 | 1011.6 |
| 20260507140637 | 53 | 329 | 2.6 | 5.2 | 0.00 | 0.00 | 0.00 | 96 | 1011.6 |
| 20260507140136 | 53 | 329 | 1.7 | 5.2 | 0.00 | 0.00 | 0.00 | 96 | 1011.6 |
| 20260507135635 | 52 | 331 | 1.7 | 4.3 | 0.00 | 0.00 | 0.00 | 96 | 1011.4 |
| 20260507135131 | 52 | 331 | 2.6 | 4.3 | 0.00 | 0.00 | 0.00 | 95 | 1011.4 |
| 20260507134633 | 52 | 331 | 1.7 | 5.2 | 0.00 | 0.00 | 0.00 | 95 | 1011.4 |
| 20260507133625 | 52 | 331 | 1.7 | 5.2 | 0.00 | 0.00 | 0.00 | 95 | 1011.4 |
| 20260507133126 | 52 | 308 | 0.9 | 3.5 | 0.00 | 0.00 | 0.00 | 95 | 1011.4 |
| 20260507132626 | 52 | 344 | 0.9 | 3.5 | 0.00 | 0.00 | 0.00 | 95 | 1011.4 |
| 20260507131621 | 52 | 344 | 2.6 | 6.1 | 0.00 | 0.00 | 0.00 | 95 | 1011.4 |
| 20260507131120 | 52 | 344 | 1.7 | 6.1 | 0.00 | 0.00 | 0.00 | 95 | 1011.1 |
| 20260507130118 | 53 | 348 | 1.7 | 5.2 | 0.00 | 0.00 | 0.00 | 95 | 1011.1 |
| 20260507125616 | 53 | 348 | 1.7 | 5.2 | 0.00 | 0.00 | 0.00 | 95 | 1011.1 |
| 20260507125116 | 53 | 351 | 1.7 | 5.2 | 0.00 | 0.00 | 0.00 | 95 | 1011.1 |
| 20260507124615 | 53 | 355 | 1.7 | 5.2 | 0.00 | 0.00 | 0.00 | 95 | 1011.1 |
| 20260507124112 | 53 | 321 | 1.7 | 5.2 | 0.00 | 0.00 | 0.00 | 95 | 1011.2 |
| 20260507123609 | 53 | 320 | 1.7 | 5.2 | 0.00 | 0.00 | 0.00 | 95 | 1011.2 |
| 20260507123107 | 53 | 319 | 1.7 | 4.3 | 0.00 | 0.00 | 0.00 | 95 | 1011.2 |
| 20260507122605 | 53 | 319 | 1.7 | 4.3 | 0.00 | 0.00 | 0.00 | 95 | 1011.2 |
| 20260507122108 | 53 | 318 | 1.7 | 5.2 | 0.00 | 0.00 | 0.00 | 95 | 1011.2 |
| 20260507121102 | 52 | 319 | 0.9 | 3.5 | 0.00 | 0.00 | 0.00 | 95 | 1011.3 |
| 20260507120602 | 52 | 319 | 1.7 | 3.5 | 0.00 | 0.00 | 0.00 | 95 | 1011.3 |
| 20260507115602 | 52 | 318 | 0.0 | 1.7 | 0.00 | 0.00 | 0.00 | 94 | 1011.3 |
| 20260507115103 | 53 | 319 | 0.0 | 1.7 | 0.00 | 0.00 | 0.00 | 94 | 1011.3 |
| 20260507114601 | 53 | 319 | 0.9 | 2.6 | 0.00 | 0.00 | 0.00 | 95 | 1011.3 |
| 20260507114053 | 53 | 318 | 0.9 | 3.5 | 0.00 | 0.00 | 0.00 | 94 | 1011.4 |
| 20260507113550 | 53 | 319 | 0.9 | 3.5 | 0.00 | 0.00 | 0.00 | 95 | 1011.4 |
| 20260507113045 | 52 | 319 | 0.9 | 2.6 | 0.00 | 0.00 | 0.00 | 95 | 1011.4 |
| 20260507112540 | 52 | 319 | 0.9 | 2.6 | 0.00 | 0.00 | 0.00 | 94 | 1011.5 |
| 20260507111540 | 52 | 319 | 1.7 | 3.5 | 0.00 | 0.00 | 0.00 | 94 | 1011.5 |
| 20260507111036 | 53 | 319 | 1.7 | 3.5 | 0.00 | 0.00 | 0.00 | 94 | 1011.6 |
| 20260507110543 | 53 | 318 | 1.7 | 3.5 | 0.00 | 0.00 | 0.00 | 94 | 1011.6 |
| 20260507110037 | 53 | 318 | 1.7 | 4.3 | 0.00 | 0.00 | 0.00 | 94 | 1011.6 |
| 20260507105534 | 53 | 318 | 1.7 | 4.3 | 0.00 | 0.00 | 0.00 | 94 | 1011.6 |
| 20260507105034 | 53 | 318 | 1.7 | 5.2 | 0.00 | 0.00 | 0.00 | 94 | 1011.6 |
| 20260507104532 | 53 | 319 | 1.7 | 5.2 | 0.00 | 0.00 | 0.00 | 94 | 1011.6 |
| 20260507104029 | 53 | 309 | 0.9 | 3.5 | 0.00 | 0.00 | 0.00 | 94 | 1011.8 |
| 20260507103524 | 53 | 309 | 1.7 | 5.2 | 0.00 | 0.00 | 0.00 | 94 | 1011.8 |
| 20260507103027 | 53 | 309 | 1.7 | 5.2 | 0.00 | 0.00 | 0.00 | 94 | 1011.8 |
| 20260507102021 | 53 | 290 | 0.9 | 2.6 | 0.00 | 0.00 | 0.00 | 94 | 1012.1 |
| 20260507101521 | 53 | 290 | 0.9 | 4.3 | 0.00 | 0.00 | 0.00 | 94 | 1012.1 |
| 20260507101022 | 53 | 290 | 0.9 | 4.3 | 0.00 | 0.00 | 0.00 | 94 | 1012.0 |
| 20260507100019 | 52 | 315 | 0.0 | 1.7 | 0.00 | 0.00 | 0.00 | 93 | 1012.0 |
| 20260507094517 | 53 | 315 | 0.0 | 1.7 | 0.00 | 0.00 | 0.00 | 93 | 1012.0 |
| 20260507094015 | 53 | 315 | 0.0 | 1.7 | 0.00 | 0.00 | 0.00 | 93 | 1012.1 |
| 20260507093511 | 53 | 315 | 0.0 | 0.9 | 0.00 | 0.00 | 0.00 | 93 | 1012.1 |
| 20260507092513 | 54 | 315 | 0.0 | 2.6 | 0.00 | 0.00 | 0.00 | 93 | 1012.1 |
| 20260507092009 | 54 | 315 | 0.0 | 2.6 | 0.00 | 0.00 | 0.00 | 93 | 1012.1 |
| 20260507091007 | 54 | 315 | 1.7 | 4.3 | 0.00 | 0.00 | 0.00 | 93 | 1012.4 |
| 20260507090505 | 54 | 315 | 1.7 | 4.3 | 0.00 | 0.00 | 0.00 | 93 | 1012.4 |
| 20260507090005 | 55 | 320 | 1.7 | 3.5 | 0.00 | 0.00 | 0.00 | 93 | 1012.4 |
| 20260507085459 | 55 | 320 | 1.7 | 4.3 | 0.00 | 0.00 | 0.00 | 92 | 1012.6 |
| 20260507085005 | 55 | 320 | 1.7 | 4.3 | 0.00 | 0.00 | 0.00 | 92 | 1012.6 |
| 20260507083957 | 55 | 331 | 1.7 | 4.3 | 0.00 | 0.00 | 0.00 | 92 | 1012.6 |
| 20260507083449 | 55 | 333 | 0.9 | 2.6 | 0.00 | 0.00 | 0.00 | 92 | 1012.6 |
| 20260507082445 | 55 | 333 | 0.9 | 4.3 | 0.00 | 0.00 | 0.00 | 92 | 1012.7 |
| 20260507081943 | 55 | 333 | 1.7 | 4.3 | 0.00 | 0.00 | 0.00 | 92 | 1012.7 |
| 20260507081438 | 55 | 333 | 1.7 | 5.2 | 0.00 | 0.00 | 0.00 | 91 | 1012.7 |
| 20260507080940 | 56 | 333 | 1.7 | 5.2 | 0.00 | 0.00 | 0.00 | 91 | 1012.9 |
| 20260507080437 | 56 | 336 | 0.9 | 2.6 | 0.00 | 0.00 | 0.00 | 91 | 1012.9 |
| 20260507075935 | 56 | 336 | 0.9 | 2.6 | 0.00 | 0.00 | 0.00 | 91 | 1012.9 |
| 20260507075430 | 56 | 336 | 0.0 | 1.7 | 0.00 | 0.00 | 0.00 | 91 | 1013.1 |
| 20260507074927 | 56 | 336 | 0.0 | 1.7 | 0.00 | 0.00 | 0.00 | 91 | 1013.1 |
| 20260507074427 | 56 | 336 | 0.9 | 2.6 | 0.00 | 0.00 | 0.00 | 91 | 1013.1 |
| 20260507073927 | 56 | 336 | 0.9 | 2.6 | 0.00 | 0.00 | 0.00 | 91 | 1013.1 |
| 20260507073422 | 56 | 336 | 0.9 | 2.6 | 0.00 | 0.00 | 0.00 | 91 | 1013.1 |
| 20260507072922 | 56 | 336 | 0.9 | 3.5 | 0.00 | 0.00 | 0.00 | 91 | 1013.1 |
| 20260507072422 | 56 | 336 | 0.9 | 3.5 | 0.00 | 0.00 | 0.00 | 91 | 1013.1 |
| 20260507070916 | 56 | 336 | 1.7 | 3.5 | 0.00 | 0.00 | 0.00 | 91 | 1013.1 |
| 20260507070423 | 56 | 336 | 1.7 | 3.5 | 0.00 | 0.00 | 0.00 | 91 | 1013.1 |
| 20260507065916 | 56 | 336 | 0.9 | 3.5 | 0.00 | 0.00 | 0.00 | 91 | 1013.1 |